Weather observations for the past three days for
San Antonio, San Antonio International Airport
Imperial (Metric)
Date Time (cdt) Wind (mph) Vis. (mi.) Weather Sky Cond. Temperature (ºF) Relative Humidity Wind Chill (°F) Heat Index (°F) Pressure Precipitation (in)
Air Dwpt 6 hour altimeter (in) sea level (mb) 1 hr 3 hr 6 hr
Max. Min.
21 16:51 E 14 10.00 Mostly Cloudy SCT049 BKN080 BKN250 90 71.1 54% 96 30.05 1015.5
21 15:51 E 14 G 21 10.00 Mostly Cloudy BKN047 BKN250 90 72 56% 97 30.06 1015.9
21 14:51 E 12 10.00 Mostly Cloudy BKN047 BKN250 89.1 72 57% 96 30.08 1016.5
21 13:51 E 9 G 20 10.00 Mostly Cloudy BKN038 BKN250 89.1 73.9 61% 98 30.1 1017.5
21 12:51 E 12 10.00 Mostly Cloudy SCT035 BKN070 BKN250 87.1 72 87.1 75.9 61% 94 30.12 1018.2 0.01
21 11:51 E 12 10.00 Mostly Cloudy SCT029 BKN055 BKN250 84 73 70% 90 30.14 1018.6
21 10:51 E 9 10.00 Mostly Cloudy SCT017 BKN024 BKN250 82.9 75 77% 90 30.14 1018.7 0.01
21 09:51 E 9 10.00 Light Rain BKN015 BKN028 BKN250 81 75 82% 87 30.14 1018.7
21 08:51 E 8 10.00 Mostly Cloudy BKN012 BKN028 BKN250 79 75 88% 83 30.13 1018.5
21 07:51 E 7 10.00 Mostly Cloudy BKN008 BKN023 BKN250 77 75 94% 78 30.11 1017.9
21 06:51 E 7 10.00 Overcast BKN008 OVC028 75.9 75 77 75.9 97% 75 30.11 1017.7
21 05:51 E 6 10.00 Overcast OVC008 75.9 75 97% 75 30.09 1017.2
21 04:51 E 5 10.00 Overcast BKN008 OVC023 75.9 75 97% 75 30.09 1017.2
21 03:51 NE 5 10.00 Overcast BKN012 OVC033 75.9 75 97% 75 30.09 1017.1
21 02:51 E 6 10.00 Mostly Cloudy BKN018 BKN250 75.9 75 97% 75 30.1 1017.6
21 01:51 NE 5 10.00 Mostly Cloudy BKN019 BKN033 BKN250 75.9 75 97% 75 30.12 1017.9
21 00:51 NE 5 10.00 Mostly Cloudy BKN024 BKN070 BKN250 75.9 75 80.1 75.9 97% 75 30.12 1018.2 0.06
20 23:51 NE 3 10.00 Light Rain BKN019 BKN043 BKN250 77 75 94% 78 30.12 1018.2
20 22:51 NE 3 10.00 Mostly Cloudy BKN022 BKN040 BKN250 75.9 75 97% 75 30.11 1017.7
20 21:51 E 8 8.00 Rain FEW010 BKN017 BKN040 77 75 94% 78 30.09 1017.2 0.06 0.06
20 20:51 NE 5 10.00 Mostly Cloudy FEW012 BKN022 BKN250 77 75 94% 78 30.07 1016.5
20 19:51 NE 9 10.00 Mostly Cloudy SCT012 BKN035 BKN250 79 75.9 90% 83 30.05 1016.0
20 18:51 E 9 10.00 Mostly Cloudy SCT030 BKN110 BKN250 79 75 88 75.9 88% 83 30.04 1015.6 0.01 0.62
20 17:51 E 13 10.00 Mostly Cloudy FEW030 BKN080 BKN250 82 77 85% 90 30.04 1015.3 0.01
20 16:51 E 6 10.00 Mostly Cloudy FEW020 BKN060 BKN250 78.1 75.9 93% 81 30.04 1015.6 0.57
20 15:51 E 16 G 24 2.00 Heavy Rain SCT015 BKN039 OVC055 84 77 80% 94 30.05 1015.9 0.03
20 14:51 NE 12 G 38 10.00 Light Rain SCT030 BKN055 BKN250 79 75 88% 83 30.05 1015.8 0.03
20 13:51 NE 18 10.00 Mostly Cloudy BKN030 BKN250 88 75 66% 98 30.04 1015.5
20 12:51 NE 13 G 24 10.00 Mostly Cloudy BKN020 BKN070 BKN250 84 75 86 77 74% 92 30.06 1016.0
20 11:51 NE 18 G 26 10.00 Light Rain SCT014 BKN021 OVC065 82 75 79% 89 30.07 1016.5
20 10:51 NE 16 G 26 10.00 Overcast SCT012 BKN017 OVC034 81 75 82% 87 30.06 1016.3
20 09:51 NE 14 G 24 10.00 Overcast BKN015 OVC022 79 75 88% 83 30.07 1016.4
20 08:51 NE 8 G 18 10.00 Light Rain BKN011 BKN023 OVC045 77 75 94% 78 30.05 1015.8
20 07:51 NE 13 G 22 10.00 Overcast BKN011 BKN023 OVC038 77 73.9 90% 78 30.03 1015.2
20 06:51 NE 9 10.00 Overcast BKN012 OVC028 77 73.9 77 75 90% 78 30.01 1014.4 0.01
20 05:51 NE 10 10.00 Overcast BKN015 OVC028 75.9 73.9 94% 75 29.99 1014.0
20 04:51 NE 10 10.00 Overcast BKN017 OVC033 75.9 73.9 94% 75 29.99 1013.9
20 03:51 NE 12 10.00 Light Rain SCT012 BKN024 OVC120 75 73 94% 73 29.99 1013.8 0.01 0.01
20 02:51 NE 13 10.00 Light Rain FEW012 BKN024 OVC140 75.9 73 91% 76 30 1014.0
20 01:51 NE 12 G 24 10.00 Light Rain SCT012 BKN026 OVC120 75 73 94% 73 30 1014.1
20 00:51 N 14 G 24 10.00 Light Rain BKN015 OVC090 75 73 75 73 94% 73 30.01 1014.4 0.02 0.37
19 23:51 NE 8 G 20 10.00 Light Rain FEW014 BKN060 OVC140 73.9 73 97% 30.03 1015.0 0.04
19 22:51 NE 13 10.00 Light Rain SCT013 BKN025 OVC100 73.9 72 94% 30.01 1014.6 0.04
19 21:51 NE 14 G 23 10.00 Rain BKN028 OVC043 73 72 96% 30 1014.3 0.1 0.27
19 20:51 N 14 G 22 4.00 Rain Fog/Mist BKN027 BKN060 OVC120 73 71.1 94% 29.99 1013.8 0.12
19 19:51 NE 13 8.00 Rain BKN015 BKN060 OVC100 73 72 96% 29.97 1013.3 0.05
19 18:51 NE 14 G 23 7.00 Light Rain FEW008 BKN015 OVC060 73.9 73 81 73.9 97% 29.96 1012.7 0.13 0.41
19 17:51 NE 13 3.00 Rain Fog/Mist BKN015 BKN045 OVC110 73.9 73 97% 29.95 1012.3 0.11
19 16:51 NE 12 G 20 9.00 Light Rain BKN015 BKN045 OVC080 75 73 94% 73 29.95 1012.4 0.05
19 15:51 NE 16 G 24 7.00 Light Rain BKN011 OVC018 75.9 73.9 94% 75 29.95 1012.3 0.03 0.12
19 14:51 NE 15 G 22 7.00 Light Rain BKN019 BKN060 OVC110 77 73.9 90% 78 29.95 1012.4 0.03
19 13:51 NE 13 G 21 7.00 Rain BKN018 OVC039 78.1 73.9 87% 81 29.96 1012.6 0.06
19 12:51 NE 13 G 24 10.00 Overcast BKN018 OVC028 81 72 82 77 74% 85 29.96 1012.6
19 11:51 NE 15 G 23 10.00 Overcast BKN020 OVC025 81 72 74% 85 29.96 1012.5
19 10:51 NE 12 G 26 10.00 Overcast OVC020 80.1 72 76% 84 29.94 1012.0
19 09:51 NE 10 10.00 Overcast OVC017 77 72 85% 78 29.95 1012.2
19 08:51 NE 12 G 20 10.00 Overcast BKN015 OVC025 78.1 71.1 79% 80 29.93 1011.7
19 07:51 NE 12 10.00 Overcast OVC019 77 71.1 82% 79 29.91 1010.8
19 06:51 NE 8 10.00 Overcast BKN017 OVC030 77 71.1 78.1 75.9 82% 79 29.89 1010.3
19 05:51 NE 9 10.00 Overcast OVC017 77 70 79% 79 29.88 1009.8
19 04:51 NE 7 10.00 Overcast OVC018 75.9 71.1 85% 76 29.87 1009.5
19 03:51 NE 8 10.00 Overcast BKN018 OVC060 77 71.1 82% 79 29.87 1009.6
19 02:51 E 10 10.00 Overcast BKN017 OVC035 77 71.1 82% 79 29.89 1010.1
19 01:51 E 8 10.00 Overcast BKN017 OVC028 77 71.1 82% 79 29.9 1010.5
19 00:51 E 14 10.00 Overcast OVC020 78.1 70 91.9 77 76% 80 29.9 1010.7
18 23:51 E 10 10.00 Partly Cloudy FEW024 SCT045 78.1 70 76% 80 29.91 1010.8
18 22:51 E 15 10.00 Partly Cloudy SCT024 79 71.1 77% 82 29.89 1010.3
18 21:51 E 23 G 33 10.00 Mostly Cloudy and Breezy BKN035 82 70 67% 86 29.86 1009.2
18 20:51 E 18 G 29 10.00 A Few Clouds FEW050 86 69.1 57% 90 29.82 1007.9
18 19:51 E 22 G 28 10.00 A Few Clouds and Breezy FEW060 90 66.9 47% 93 29.8 1007.0
18 18:51 E 17 G 26 10.00 A Few Clouds FEW060 FEW250 91.9 66.9 95 86 44% 95 29.79 1006.6
18 17:51 SE 16 10.00 Partly Cloudy SCT060 SCT250 91 71.1 52% 98 29.79 1006.9
Date Time (cdt) Wind (mph) Vis. (mi.) Weather Sky Cond. Air Dwpt Max. Min. Relative Humidity Wind Chill (°F) Heat Index (°F) altimeter (in) sea level (mb) 1 hr 3 hr 6 hr
6 hour
Temperature (ºF) Pressure Precipitation (in)